Regional Weather Roundup
Issued by NWS

Home | Current Version | Previous Version | Text Only | Print | Product List | Glossary On
Versions: 1 2 3 4 5 6 7 8 9 10 11 12 13 14 15 16 17 18 19 20 21 22 23 24 25 26 27 28 29 30 31 32 33 34 35 36 37 38 39 40 41 42 43 44 45 46 47 48 49 50
000
ASUS43 KTOP 260359
RWRKS

WEATHER ROUNDUP FOR KANSAS
NATIONAL WEATHER SERVICE GOODLAND KS
1100 PM CDT MON MAY 25 2015

NOTE:  "FAIR" INDICATES FEW OR NO CLOUDS BELOW 12,000 FEET WITH NO
SIGNIFICANT WEATHER AND/OR OBSTRUCTIONS TO VISIBILITY.

KSZ001>006-013>018-027>032-041>047-260500-
NORTHWEST KANSAS

CITY           SKY/WX    TMP DP  RH WIND       PRES   REMARKS
GOODLAND       PTCLDY    52  47  83 W8        29.93R
HAYS           CLOUDY    64  55  72 S5        29.83R
HILL CITY      MOCLDY    62  51  67 NW10      29.84R
RUSSELL        CLOUDY    62  57  83 SE18G26   29.82R
$$

KSZ061>065-074>080-084>089-260500-
SOUTHWEST KANSAS

CITY           SKY/WX    TMP DP  RH WIND       PRES   REMARKS
DODGE CITY     PTCLDY    66  49  54 W20G32    29.88R
ELKHART          N/A     61  50  67 SE5         N/A
GARDEN CITY    MOCLDY    61  53  75 E7        29.87R
GREAT BEND     CLOUDY    63  57  82 SE15      29.84R
LIBERAL        PTCLDY    59  50  72 S10       29.89R
$$

KSZ066>073-081>083-090>101-260500-
SOUTHEAST KANSAS

CITY           SKY/WX    TMP DP  RH WIND       PRES   REMARKS
CHANUTE        LGT RAIN  64  61  90 W7        29.85R
COFFEYVILLE    CLOUDY    63  61  93 W10       29.82R
HUTCHINSON     RAIN      61  57  87 SE16      29.82F FOG
NEWTON         CLOUDY    61  54  77 W5        29.87R
PARSONS        CLOUDY    66  59  78 NW6       29.85R
WICHITA INTL   LGT RAIN  60  57  89 SW7       29.84R
WICHITA JABRA  CLOUDY    59  57  93 SE3       29.84S
WICHITA MCCONL CLOUDY    61  57  88 E8        29.83R
WINFIELD       CLOUDY    62  58  86 SE6       29.84F
$$

KSZ007>012-019>026-033>040-048>060-102>105-260500-
NORTHEAST KANSAS

CITY           SKY/WX    TMP DP  RH WIND       PRES   REMARKS
CONCORDIA      CLOUDY    63  54  72 S15       29.78F
EMPORIA        LGT RAIN  62  58  86 SE3       29.87R
LAWRENCE       CLOUDY    70  65  84 E5        29.79F
MANHATTAN      CLOUDY    64  60  87 W5        29.82R
OLATHE IND     CLOUDY    70  66  87 E6        29.80F
OLATHE EXE     CLOUDY    71  66  84 E3        29.80F
SALINA         CLOUDY    65  54  67 W10       29.77S
TOPEKA BILLARD TSTM      63  60  90 N9        29.83S
TOPEKA FORBES  CLOUDY    67  57  70 N12       29.81F
$$


USA.gov is the U.S. government's official web portal to all federal, state and local government web resources and services.